Theta_e
327 339 341 341 342 341 339 335 334 336 335 335 333 330 327 326 323 315 312 313 313 312 311 310 310 309 308 308 307 305 305 306 307 307 306 307 308 307 308 308 308 306 305
327 337 339 340 340 341 340 334 338 335 336 336 331 328 326 323 316 313 313 313 312 311 310 310 309 308 308 306 305 304 304 306 306 306 306 307 307 307 307 306 305 304 305
334 337 342 339 336 337 336 334 338 335 335 330 328 326 322 316 313 313 313 312 311 310 310 309 308 307 306 303 301 302 303 305 305 304 305 306 306 305 306 306 305 304 303
334 338 340 339 341 340 335 338 337 337 333 328 323 322 315 313 313 312 311 311 311 310 308 307 306 305 302 299 298 299 302 303 304 305 305 305 304 304 306 304 305 306 304
338 341 340 342 342 335 338 337 336 333 327 322 320 315 312 312 312 311 311 311 309 308 306 305 303 300 297 296 297 300 302 303 304 304 304 304 304 304 304 304 304 305 304
340 340 340 341 339 338 337 333 333 328 323 319 316 313 313 312 312 311 310 309 307 306 304 302 298 296 295 297 299 301 301 302 303 303 303 304 304 304 304 303 303 303 302
338 336 338 337 336 335 331 331 329 324 322 317 313 312 313 311 310 310 308 307 305 303 299 296 295 295 295 296 298 300 302 302 302 302 303 303 304 304 303 303 303 303 302
335 337 336 334 335 334 331 326 323 319 317 314 313 313 311 311 310 308 306 305 302 298 296 295 295 295 295 295 297 300 302 303 303 303 304 304 304 305 303 302 302 303 302
335 335 333 336 334 328 326 324 324 318 314 313 313 312 310 309 308 306 304 301 297 295 295 295 295 294 294 295 297 299 301 302 303 304 304 305 306 306 302 302 303 301 302
329 331 331 332 329 325 325 326 323 315 314 313 312 310 308 307 305 303 300 296 295 295 294 294 293 293 294 296 297 298 299 301 302 303 305 305 306 306 302 302 301 300 299
329 329 327 326 325 326 323 318 314 313 312 311 309 308 306 304 302 298 295 294 294 293 293 292 292 293 294 295 296 297 298 300 302 303 304 305 305 304 302 302 301 300 300
328 325 323 323 324 322 323 313 312 311 310 308 307 305 303 300 297 295 294 294 293 292 292 292 293 294 294 294 295 296 298 300 301 302 303 304 304 303 302 303 302 301 301
324 323 324 323 320 315 312 311 309 308 308 306 303 301 298 295 294 294 293 292 291 291 292 292 293 293 293 293 294 295 296 298 299 301 302 303 303 302 302 303 303 301 301
323 322 321 314 311 310 310 309 308 308 305 301 300 296 295 294 293 292 292 291 291 292 292 292 292 292 292 292 293 294 296 297 297 299 301 303 304 303 302 303 303 302 300
321 316 312 312 311 308 307 307 306 302 300 298 295 294 294 293 292 291 290 291 291 291 291 292 292 292 292 292 293 294 295 296 297 299 301 302 303 303 302 302 303 302 301
313 311 309 306 306 305 301 297 296 296 295 294 294 293 292 292 290 290 291 291 290 291 292 292 291 291 291 292 293 294 296 297 298 298 299 301 302 302 302 302 302 302 301
310 306 305 303 300 298 296 295 294 293 293 292 292 292 290 290 290 290 290 291 291 292 292 291 291 291 291 292 293 295 297 298 298 298 299 301 302 302 302 302 303 303 302
306 304 301 298 298 295 295 295 294 293 292 291 290 290 289 290 290 290 290 290 292 291 290 290 290 290 290 291 294 296 298 298 298 299 300 301 302 302 302 301 303 304 304
306 302 300 297 296 296 295 294 293 292 292 291 290 289 289 289 290 290 290 292 290 290 289 290 290 290 290 292 295 296 298 298 299 300 301 301 302 302 302 301 303 304 303
304 302 300 297 295 294 294 293 292 291 291 290 289 288 289 290 290 290 290 290 289 289 289 289 289 290 290 291 294 296 298 299 300 301 301 302 302 301 302 302 302 303 302
304 299 297 294 294 293 293 292 291 291 290 289 289 289 289 291 290 290 289 289 289 289 289 289 289 289 289 290 292 295 298 299 300 301 301 301 301 302 302 302 302 302 302
300 295 294 294 293 293 292 291 291 290 290 290 289 289 290 290 289 289 289 289 289 289 289 289 289 289 289 289 291 294 296 299 300 300 301 301 302 302 300 298 298 299 302
295 294 294 294 293 292 291 291 291 290 291 290 290 290 289 289 289 289 289 289 289 289 288 288 288 288 288 289 289 292 295 298 299 300 301 301 300 300 300 299 298 296 294
295 295 294 293 292 292 291 291 291 291 291 290 289 289 288 288 289 289 289 289 288 288 288 288 288 288 288 288 289 290 292 295 299 300 299 299 299 299 300 300 300 297 296
295 294 294 293 292 292 291 291 291 291 290 289 289 289 288 289 289 289 289 288 288 288 287 287 287 287 288 288 288 289 289 292 296 298 299 300 299 299 299 299 299 298 297
294 294 293 293 292 292 292 291 291 290 290 289 289 289 289 289 289 289 288 288 288 287 287 287 287 287 288 288 288 288 289 289 290 294 297 298 299 299 299 299 299 298 297
Wind_Speed
34 40 38 41 35 33 35 30 29 30 29 23 23 20 15 10 4 3 4 5 4 6 7 9 11 12 14 15 17 17 18 19 24 29 28 29 31 33 34 34 37 33 31
34 36 41 38 35 37 35 32 34 33 26 24 22 18 14 8 5 5 5 5 5 5 8 10 11 13 14 16 17 18 18 18 22 29 31 32 32 33 37 41 39 33 29
36 37 43 42 39 39 36 39 33 29 28 25 21 17 12 9 8 7 5 5 5 7 10 12 13 14 14 16 17 17 18 19 20 25 30 31 33 38 40 39 40 35 27
37 40 42 43 40 43 38 36 33 32 28 25 21 16 13 11 10 8 6 5 5 8 11 12 14 14 16 16 17 17 18 20 22 25 29 32 37 39 39 40 42 39 33
37 44 46 44 43 42 38 41 38 32 29 26 20 17 14 13 11 7 6 5 7 9 11 12 13 16 16 17 17 17 18 20 22 24 27 31 36 40 41 40 40 39 34
45 48 50 50 45 42 47 42 37 34 27 22 20 18 17 15 11 7 6 7 9 10 9 11 14 15 16 16 15 14 17 18 19 22 25 29 33 34 36 37 37 39 33
52 53 53 50 49 49 45 42 35 33 30 23 21 18 17 14 10 8 7 8 8 8 11 13 14 15 15 15 13 13 12 13 16 20 25 26 32 32 33 35 35 34 30
56 56 54 54 47 49 46 41 37 30 26 22 21 19 16 15 7 6 6 7 7 9 11 13 14 15 16 17 16 13 12 11 15 20 21 22 26 29 27 28 31 33 29
57 57 53 48 50 48 41 36 32 28 26 24 21 18 15 14 8 6 7 7 7 10 11 12 14 15 17 17 16 14 14 14 14 17 17 16 19 25 23 28 32 35 36
58 55 46 49 52 47 41 37 31 28 27 25 24 19 14 11 8 7 6 6 8 10 11 11 13 15 16 17 17 19 22 24 24 22 21 18 21 25 23 24 27 30 33
57 59 61 55 49 43 43 39 37 32 29 26 23 19 14 10 9 6 4 6 9 9 10 11 14 15 14 17 18 22 23 21 21 22 23 21 23 26 26 22 25 26 28
64 69 62 54 49 47 41 39 35 35 32 28 23 20 16 12 8 6 7 9 9 10 11 14 14 12 15 17 19 19 17 19 22 24 25 25 26 29 26 21 21 24 26
67 61 55 50 47 43 42 41 38 33 30 27 22 21 18 12 8 9 11 10 12 11 12 16 11 13 17 17 19 20 21 25 26 27 27 24 24 27 23 21 21 25 29
63 59 54 50 51 45 40 37 35 30 26 24 23 21 18 13 12 11 12 11 11 12 14 14 16 19 19 20 21 24 26 29 30 27 25 21 21 26 26 23 24 24 29
61 57 55 51 48 45 40 34 28 26 22 24 23 18 15 16 15 14 12 12 13 14 13 15 18 21 24 25 25 25 25 28 29 25 24 22 23 26 26 24 23 26 28
60 57 53 51 48 43 41 40 32 29 25 21 19 16 20 20 17 15 15 16 14 14 16 22 25 28 29 29 29 28 30 30 28 25 25 23 23 26 26 24 23 25 30
59 57 53 50 49 48 45 43 43 31 25 24 23 23 21 20 18 18 16 14 16 18 23 26 28 28 29 28 27 29 31 29 26 25 24 23 23 25 25 25 24 26 26
56 53 53 51 48 45 42 39 37 35 33 29 23 22 22 21 19 17 15 15 21 24 26 27 28 27 27 25 26 29 29 28 26 25 23 23 24 26 25 25 22 24 26
51 50 49 47 44 40 37 37 35 33 31 29 26 24 21 20 19 17 18 22 25 25 26 27 26 25 24 25 26 28 28 28 27 25 24 25 26 26 25 24 22 21 24
46 43 42 41 40 38 36 35 33 31 30 29 26 25 21 19 18 21 23 23 24 25 26 25 24 22 23 25 26 28 29 28 28 27 26 26 28 27 27 26 25 24 25
42 41 39 40 38 36 35 34 33 32 31 30 27 23 19 19 22 23 23 23 25 25 24 22 22 23 24 23 25 28 30 29 30 29 29 29 29 28 27 26 25 23 23
41 40 39 39 38 37 35 34 33 32 30 29 27 24 20 21 23 24 23 24 23 23 22 21 21 23 24 25 25 28 31 31 30 29 28 28 28 27 28 27 27 24 21
40 41 41 39 36 36 35 33 31 30 28 26 25 24 21 24 24 23 23 21 21 21 21 20 21 20 21 24 26 28 31 31 28 27 27 28 28 27 26 26 27 29 28
40 40 39 37 36 35 34 33 30 27 26 25 24 23 24 23 22 22 20 19 19 19 19 19 19 19 20 23 26 27 28 28 26 23 26 28 27 26 25 25 25 24 28
40 39 37 36 35 34 32 30 28 26 25 24 23 24 23 21 21 19 18 18 18 18 17 17 18 19 20 23 25 25 24 24 25 24 20 20 22 25 26 26 25 25 24
39 36 34 33 32 30 29 28 27 25 24 23 22 21 20 19 18 17 17 17 17 16 15 16 18 20 21 22 24 24 25 25 24 23 23 23 21 20 21 24 24 24 23
Wind_Direction
214 210 211 195 199 195 196 190 178 178 184 190 186 184 183 178 184 138 118 105 77 50 37 14 2 359 348 343 340 344 347 333 324 326 338 344 348 344 351 359 355 355 354
212 209 207 200 195 194 201 195 178 182 182 181 181 177 170 165 154 138 122 111 75 39 18 358 353 354 343 345 342 347 343 331 326 327 339 346 346 349 359 359 359 1 2
206 201 202 194 197 203 191 180 178 181 177 170 173 166 157 149 141 134 118 93 52 18 357 349 352 350 353 348 344 343 339 334 333 331 336 346 348 359 3 360 2 6 12
201 194 192 198 200 196 182 178 177 173 172 168 159 152 145 139 132 121 105 68 24 1 353 352 357 357 355 348 346 342 338 336 340 341 343 349 358 1 360 358 0 5 7
187 180 189 190 194 186 181 173 164 163 160 157 150 142 136 127 118 108 86 48 14 355 358 1 360 0 351 351 349 341 335 339 342 347 348 354 360 359 358 357 359 3 8
180 180 180 183 183 176 168 160 160 157 153 148 142 138 133 128 115 100 63 28 7 0 1 6 9 6 4 2 356 340 337 344 347 347 354 357 1 358 357 358 1 1 355
174 173 176 178 171 163 160 155 156 150 158 152 143 143 136 120 104 84 43 13 11 6 13 13 15 14 6 8 4 358 351 349 348 351 358 0 358 359 358 356 2 7 360
171 171 173 165 166 162 158 149 145 143 145 145 142 144 138 121 114 83 43 26 18 16 18 18 16 16 11 17 14 8 6 360 0 4 359 2 1 357 2 0 4 8 12
167 166 167 167 160 151 141 141 142 149 145 145 147 147 141 129 114 71 48 31 15 22 17 14 17 18 16 16 15 15 20 22 13 9 3 359 359 4 11 5 12 13 15
161 158 159 157 146 142 149 147 155 150 147 151 150 143 135 121 102 73 54 31 21 20 17 16 17 24 18 19 14 16 18 15 11 10 11 12 18 15 27 22 21 16 24
151 150 145 142 143 147 147 147 149 149 153 155 147 140 131 114 108 94 46 33 34 27 25 27 30 31 23 24 19 21 18 12 16 15 19 20 25 28 38 32 33 28 37
150 145 144 144 147 147 151 146 149 154 153 149 149 134 125 125 115 94 68 53 50 37 36 37 36 36 32 28 28 27 20 20 23 22 26 28 27 36 43 40 44 50 57
141 135 137 142 142 143 145 149 151 151 150 145 141 131 129 123 105 83 70 61 54 44 46 48 51 43 37 30 31 28 25 27 28 28 31 34 33 39 47 57 64 63 63
134 138 143 138 139 145 147 147 148 147 144 141 135 134 124 116 96 81 73 65 61 57 60 59 47 43 43 42 36 33 28 25 23 31 40 38 40 45 50 57 65 64 66
135 138 140 143 143 145 144 141 139 137 137 136 124 120 118 113 97 88 83 77 69 68 68 61 52 49 44 42 38 34 29 28 25 29 42 42 47 48 51 54 61 64 70
136 138 140 141 141 139 133 127 125 123 120 118 118 118 114 98 95 93 83 72 71 65 60 53 49 46 43 38 35 32 28 29 29 35 43 44 48 47 47 55 62 71 78
137 140 141 140 138 137 136 133 126 121 120 119 114 102 98 101 93 83 81 79 75 63 57 54 51 48 45 39 35 32 30 32 33 37 42 46 50 51 45 51 68 74 76
137 140 140 138 138 138 136 133 132 133 127 115 108 108 102 95 93 89 85 82 70 62 57 54 51 48 44 40 38 34 34 37 37 41 45 49 50 48 47 51 67 63 75
139 140 140 141 139 138 137 134 132 128 122 119 117 112 106 102 97 95 84 70 66 64 59 54 52 51 48 45 44 38 37 38 40 43 46 50 50 50 54 58 65 66 74
137 138 139 137 136 135 134 131 126 123 120 116 117 112 108 108 102 86 77 72 69 63 58 56 55 54 51 48 45 41 41 42 44 45 49 53 53 55 58 60 61 67 68
136 137 138 136 134 133 131 128 128 125 124 119 112 110 110 101 93 87 82 75 69 64 60 58 57 55 52 50 49 45 44 46 45 50 56 60 62 63 63 64 62 62 63
139 138 136 134 133 132 132 132 130 128 122 118 116 109 105 100 92 85 78 73 68 65 61 57 55 53 51 50 49 47 46 50 50 53 57 60 60 62 60 60 58 54 56
138 136 136 134 135 134 132 129 128 125 119 116 113 112 107 95 88 83 76 73 69 65 61 55 53 53 51 50 49 48 46 47 48 48 52 57 56 56 56 56 55 52 52
139 140 137 136 135 132 129 128 124 120 120 120 116 108 99 93 89 83 80 75 71 66 62 59 56 56 55 52 51 51 49 47 49 52 55 56 56 56 57 55 56 59 58
143 141 138 136 135 131 129 125 127 129 124 118 113 104 99 93 88 86 82 76 72 68 64 61 59 58 57 55 52 51 51 50 49 50 50 45 50 53 55 54 55 60 63
143 139 137 136 134 133 133 131 129 129 127 119 111 105 98 95 92 88 83 78 74 70 66 63 60 57 57 56 53 50 50 50 49 47 46 46 45 48 50 53 55 56 57